GFSNGP_250_spd_270.txt.gz
Wind_Speed
78 91 101 103 103 101 97 90 88 91 87 85 84 83 86 86 85 86 88 86 85 81 80 79 78 82 80 80 81 82 85 87 89 93 90 87 80 75 75 73 74 73 69 67
75 86 95 101 103 99 92 91 88 91 93 90 91 93 84 81 81 82 85 85 84 82 83 82 81 79 80 81 82 84 87 88 90 90 81 75 71 70 68 69 67 65 62 61
71 82 93 100 93 90 90 87 86 87 91 94 91 88 88 88 88 85 85 86 86 83 82 80 78 80 81 83 84 85 86 89 88 77 71 68 66 63 62 61 58 56 56 57
75 84 93 79 94 92 86 86 84 85 91 93 91 90 91 87 83 84 83 82 81 80 78 79 81 80 83 84 86 89 88 82 74 68 66 64 60 57 56 55 54 55 57 60
81 85 81 84 80 83 87 83 83 83 87 91 89 87 82 70 69 72 75 76 76 75 76 81 82 83 86 87 86 83 75 71 66 64 63 58 56 56 57 56 54 57 60 63
85 86 83 69 76 78 82 79 79 79 80 82 84 84 75 74 72 77 82 80 78 78 81 82 82 84 83 79 77 71 68 65 63 62 58 55 55 57 57 58 59 60 63 65
83 84 74 74 76 80 83 55 72 73 76 77 76 73 79 80 81 86 86 82 79 81 80 79 79 78 75 72 69 65 63 63 63 60 55 54 55 56 57 59 59 61 64 66
90 85 74 73 77 76 63 66 76 74 67 71 74 76 77 79 82 83 79 74 75 77 75 74 75 72 69 66 63 63 64 63 60 57 55 54 56 57 59 58 59 63 67 69
96 77 69 79 77 77 79 77 78 80 80 78 75 74 75 78 80 78 74 76 75 73 70 72 70 68 66 63 63 64 63 60 58 56 55 55 55 56 57 59 63 67 70 75
98 83 75 81 85 86 84 79 77 77 82 79 79 79 79 83 78 73 74 73 73 71 70 69 67 65 63 64 63 63 60 58 57 57 56 56 56 57 59 61 64 69 73 78
94 85 77 78 81 87 93 90 85 80 82 80 80 79 80 79 72 72 71 70 69 68 68 67 66 65 65 64 63 60 58 57 57 57 57 58 58 59 62 65 67 71 75 79
90 91 83 79 87 91 91 90 88 86 84 81 78 77 78 74 71 69 69 70 67 66 66 66 65 65 63 62 59 58 57 58 57 57 58 59 60 61 63 66 68 73 76 81
94 98 87 79 85 88 87 88 83 80 79 78 77 76 74 70 69 70 70 68 67 67 66 64 63 62 60 58 58 58 58 58 59 57 59 61 61 63 64 68 70 75 77 83
92 97 89 84 84 91 89 88 84 80 76 74 73 72 69 67 66 66 66 65 65 65 65 62 60 59 58 58 58 59 59 60 60 60 60 61 64 66 69 72 73 77 81 86
85 97 96 94 93 90 89 88 81 76 74 71 69 66 63 61 62 64 63 60 58 59 59 58 57 58 58 58 59 59 61 61 62 63 63 65 68 70 73 75 78 82 85 89
89 98 102 99 94 93 88 85 80 76 73 70 67 64 64 65 63 62 62 60 58 61 58 57 59 59 59 59 59 60 61 62 64 65 67 69 72 75 76 78 82 86 90 94
88 93 102 102 96 89 84 81 79 78 76 73 71 70 68 65 65 65 63 61 62 60 57 59 60 60 59 60 61 61 63 64 66 68 69 72 75 76 77 79 83 87 90 95
83 94 104 105 99 93 89 85 82 79 76 76 75 73 68 66 67 67 65 62 61 58 59 61 62 60 61 63 63 64 66 67 68 69 72 76 78 79 80 82 85 88 92 98
81 93 105 104 100 95 91 87 83 83 82 79 76 70 71 71 69 67 63 61 58 59 63 61 60 63 65 64 65 67 70 70 69 71 74 77 80 82 84 85 88 92 96 101
85 96 105 106 103 97 93 89 86 84 83 81 78 76 72 71 69 66 65 63 61 62 60 63 64 65 65 66 66 70 72 71 72 74 77 81 85 85 85 87 91 96 100 103
86 96 102 106 103 98 94 90 86 81 77 74 73 74 75 74 72 69 65 63 66 65 62 63 65 65 66 66 70 74 74 74 76 78 81 85 85 85 87 91 95 99 102 106
86 95 103 106 104 100 96 92 87 83 77 74 75 74 73 71 70 69 69 68 66 65 67 68 66 66 67 70 74 76 77 77 79 82 85 86 87 88 91 95 99 102 105 108
89 95 103 105 102 100 98 94 88 83 80 78 78 79 78 77 74 72 71 70 68 68 68 69 70 71 72 75 77 78 78 81 84 84 86 88 90 93 96 99 103 105 108 111
91 96 101 106 105 104 102 97 93 89 87 86 85 84 81 78 75 75 74 72 72 73 73 73 74 77 79 79 80 81 82 84 86 88 90 93 95 98 100 103 106 108 111 113
88 93 97 103 106 105 103 101 98 95 93 90 87 85 82 80 78 78 78 77 76 77 78 79 80 81 82 82 84 86 87 89 91 94 96 98 100 102 104 107 109 111 114 116
85 92 96 101 106 106 105 104 101 98 94 91 89 87 86 84 83 83 83 82 82 83 83 83 84 84 85 87 89 91 92 94 96 98 100 102 103 106 108 110 112 114 116 116
82 89 94 98 103 105 105 104 102 99 97 95 93 92 91 89 88 87 87 86 86 87 87 87 88 88 90 92 93 94 96 98 99 101 104 105 107 110 112 114 115 116 117 116

GFSNGP_250_spd_276.txt.gz
Wind_Speed
75 80 86 89 92 90 92 83 83 69 68 82 80 80 86 92 89 90 86 81 84 88 88 86 83 82 81 81 80 77 76 76 77 78 75 76 78 79 78 79 80 80 82 85
75 79 84 88 92 91 83 79 79 72 76 78 81 83 84 86 83 88 83 78 77 82 84 84 85 83 81 80 80 80 80 80 78 76 76 78 78 77 78 78 79 82 84 87
77 84 86 89 77 83 81 78 75 76 71 82 79 80 84 84 84 88 83 76 73 74 77 80 81 83 83 82 81 79 76 77 75 76 77 75 77 76 76 78 81 82 85 86
81 86 87 59 85 82 82 81 79 74 74 78 76 78 88 88 84 85 82 73 70 74 75 73 73 71 72 73 72 72 71 71 74 75 73 74 72 74 76 79 80 83 84 87
84 87 75 81 77 79 81 80 84 81 79 75 75 81 85 85 82 82 81 76 71 76 75 63 62 64 68 68 70 71 71 71 69 69 70 70 71 73 76 78 80 81 85 86
86 85 77 65 82 81 83 80 83 82 80 80 81 80 78 85 85 83 84 81 75 71 68 62 61 67 70 70 69 68 67 67 69 69 69 69 72 76 76 77 80 84 84 78
83 84 71 74 79 83 85 72 85 85 83 85 85 82 94 93 93 91 92 86 83 76 71 64 62 67 68 67 67 67 64 63 65 68 69 73 74 76 77 79 85 81 76 74
84 82 73 76 82 88 85 83 83 86 89 89 89 90 92 94 94 94 91 88 82 82 79 77 73 73 71 72 69 69 69 68 69 70 73 76 77 78 81 84 79 75 74 74
78 69 73 87 96 91 85 84 84 87 84 85 86 89 94 99 98 95 93 92 88 89 79 78 81 82 80 79 77 69 68 69 72 73 77 75 77 83 82 76 73 72 73 74
77 67 77 78 82 87 86 86 83 83 84 82 83 84 89 100 96 94 94 89 88 87 84 86 86 85 86 85 79 76 76 73 74 73 74 80 81 79 74 72 71 72 74 74
73 70 76 81 88 78 85 87 85 85 85 79 78 80 83 93 96 93 90 83 80 74 74 75 74 71 69 68 70 69 69 73 76 78 79 79 77 71 70 70 71 72 74 74
67 75 74 76 79 80 83 88 88 87 83 77 78 81 82 87 93 90 89 86 85 80 72 69 69 69 67 68 69 72 73 75 76 77 77 73 70 69 70 70 72 73 74 73
67 74 69 78 81 81 84 89 91 86 84 78 81 81 80 85 91 95 92 88 82 80 80 80 79 79 80 78 73 75 75 75 77 74 73 71 69 70 70 71 73 73 73 72
74 76 64 76 77 84 83 89 91 86 86 81 81 83 84 88 86 86 84 85 87 84 82 82 80 77 74 74 75 75 77 77 74 74 72 71 70 70 71 72 72 73 72 71
76 77 70 77 82 79 80 88 91 90 90 84 81 90 89 89 91 94 91 87 84 82 81 79 79 79 80 77 76 78 78 76 76 75 73 71 70 70 70 71 72 72 71 70
78 81 78 74 77 79 78 84 88 93 94 91 84 86 92 91 92 93 93 91 87 86 86 84 80 77 76 76 78 79 80 79 77 76 73 71 70 70 70 71 71 71 70 70
71 66 71 70 76 80 74 79 86 93 95 96 86 87 90 91 87 83 84 83 82 79 76 74 76 80 77 77 78 78 77 76 74 71 71 71 71 70 70 71 71 71 69 71
59 67 67 70 75 79 77 80 85 92 97 101 92 87 86 85 86 86 82 79 77 78 78 77 79 79 80 80 77 76 78 75 72 73 73 71 70 70 70 71 71 71 71 72
61 63 65 70 73 77 83 82 83 88 99 103 95 88 88 89 86 81 80 79 77 75 76 78 80 79 78 79 79 79 77 75 75 74 72 70 70 70 71 71 71 72 72 73
60 62 64 70 73 77 84 82 87 88 94 101 97 92 89 89 87 81 77 76 79 81 83 83 79 79 79 79 79 77 75 74 73 72 71 71 71 71 72 73 73 75 75 75
59 61 60 63 70 77 81 83 86 88 91 94 96 95 93 92 89 86 84 83 81 79 81 84 81 80 76 74 71 72 74 74 72 71 73 72 72 73 74 74 76 78 79 78
58 64 67 68 70 74 79 84 88 88 86 84 92 96 94 89 88 87 87 87 86 87 85 80 77 73 71 70 71 73 72 71 72 74 74 73 74 74 75 78 79 83 81 83
56 63 68 72 75 76 81 87 86 85 82 76 84 92 94 91 89 85 81 80 79 77 73 74 73 73 72 71 72 70 71 73 75 74 74 74 74 76 78 81 84 86 85 87
56 63 68 73 75 77 82 82 83 80 77 77 81 90 95 94 90 84 80 80 80 79 76 78 77 75 72 73 74 74 73 73 74 75 74 75 77 79 82 85 87 89 89 89
61 65 67 71 76 77 78 79 79 75 75 73 76 82 89 93 91 85 82 79 78 74 72 76 77 73 74 73 71 72 74 75 74 75 76 78 80 83 85 87 90 92 92 92
62 62 62 67 72 76 75 72 72 73 71 71 74 78 82 87 87 87 84 80 76 75 76 74 73 74 76 75 75 74 74 75 77 78 79 81 84 85 88 91 93 95 95 96
59 61 63 65 70 71 68 67 68 69 71 72 73 75 77 82 86 85 83 79 76 76 75 73 72 75 75 75 76 77 77 78 80 81 83 85 86 89 91 94 96 97 97 100

GFSNGP_250_spd_279.txt.gz
Wind_Speed
74 78 83 84 82 84 90 95 99 90 88 84 89 89 92 96 94 96 96 93 91 87 86 87 84 84 86 88 86 86 84 82 81 79 77 78 79 80 77 77 78 78 77 79
79 76 80 87 87 86 83 79 88 91 87 86 91 92 91 89 88 88 88 88 88 86 84 85 85 81 85 87 87 86 84 82 80 78 76 76 78 76 76 78 77 76 80 81
83 81 86 93 83 73 77 79 87 86 85 86 93 95 94 83 85 86 86 87 85 86 84 83 83 80 79 84 86 86 85 82 80 77 76 76 75 76 76 74 75 76 80 80
81 89 92 69 77 86 84 81 83 81 83 89 95 98 93 91 87 89 88 87 85 83 80 81 81 79 76 74 82 84 84 82 79 76 74 74 73 72 70 72 73 76 78 77
78 85 78 81 84 81 82 81 83 84 85 92 96 97 96 91 93 93 91 90 88 87 85 81 79 77 74 71 71 77 80 73 72 73 72 71 70 70 70 71 74 77 76 76
78 76 74 68 78 84 89 87 90 88 85 90 95 96 95 89 92 92 90 89 87 86 83 81 77 75 70 67 65 65 67 70 66 64 63 64 65 64 68 74 75 75 74 77
73 76 70 77 85 92 94 91 88 84 83 86 91 96 92 93 97 93 92 92 89 86 83 82 81 74 67 64 60 58 60 58 62 64 66 64 66 72 74 74 71 72 77 78
73 73 67 79 90 101 97 92 89 87 83 84 89 92 97 94 94 88 88 87 84 81 81 82 81 73 68 62 62 59 62 61 64 64 65 67 69 69 73 70 72 78 77 81
71 67 65 79 94 100 95 89 88 87 85 85 89 86 90 89 83 81 80 80 81 81 83 82 77 72 67 67 63 60 61 60 63 66 68 68 71 72 73 76 76 76 79 84
66 62 70 83 84 88 94 91 88 89 87 89 88 86 85 87 85 86 82 75 76 81 82 80 76 75 70 69 67 65 61 66 68 69 70 71 72 75 70 71 75 79 81 85
67 64 69 79 82 90 90 91 90 92 89 86 85 84 83 81 81 82 85 79 78 79 81 80 80 80 75 72 71 69 71 73 73 73 72 77 71 72 78 81 80 78 83 84
65 73 76 83 86 85 80 86 90 94 90 85 84 84 82 80 79 80 79 81 81 81 83 85 83 81 79 76 75 76 75 77 77 75 76 78 76 74 75 75 76 81 81 82
62 83 75 81 82 83 80 90 92 97 95 88 82 85 83 79 77 78 78 79 81 85 85 87 88 84 80 81 81 81 80 79 79 73 66 68 70 73 73 78 81 79 81 80
71 79 70 78 80 82 80 87 90 91 93 90 87 85 84 80 78 78 79 80 81 83 84 87 86 84 81 80 78 75 69 68 67 66 69 70 69 72 76 78 78 80 81 82
75 79 80 83 84 79 77 83 84 85 90 91 88 86 85 81 78 78 78 76 76 78 79 83 81 77 77 77 76 70 70 68 66 68 69 72 75 74 75 78 80 81 83 84
72 70 75 75 79 81 79 82 83 81 85 88 85 87 86 83 80 77 74 74 74 74 76 81 78 76 75 75 73 73 69 68 69 72 76 71 71 74 78 79 81 83 83 81
66 59 64 65 68 78 77 78 79 82 83 84 82 83 86 84 82 79 75 76 79 75 75 78 77 79 79 73 71 71 72 73 74 73 71 74 77 78 79 82 81 82 83 82
67 64 63 64 68 75 76 72 76 81 80 81 83 85 88 83 82 80 79 77 84 81 76 75 76 74 75 77 78 78 77 74 74 74 76 77 77 79 81 80 82 83 82 80
60 60 65 65 69 69 73 69 70 78 82 81 82 84 89 85 84 82 79 78 82 85 86 78 73 78 82 79 76 74 72 72 74 77 77 78 78 79 80 81 82 82 79 79
56 58 59 62 67 70 74 76 76 76 80 80 80 86 89 87 84 81 77 78 84 84 86 85 83 81 77 77 78 80 79 81 79 78 78 77 78 78 81 81 81 80 79 79
52 53 58 59 64 68 72 76 75 76 82 82 77 82 89 91 83 82 79 75 84 85 84 87 89 87 81 78 80 83 79 77 77 76 78 79 79 79 80 79 77 77 77 78
46 47 54 59 61 66 69 73 76 81 78 77 76 79 89 88 80 81 80 79 79 84 86 89 87 85 85 86 86 84 81 80 79 78 77 79 78 79 78 75 76 76 77 79
43 46 51 56 59 63 69 71 74 75 76 73 75 79 87 83 80 81 82 78 75 76 80 83 81 81 81 81 80 78 77 77 78 79 80 79 81 78 76 76 76 77 79 82
45 48 50 55 59 62 67 69 71 75 77 79 79 81 82 75 77 80 81 79 76 77 79 77 76 78 77 72 74 75 76 77 77 79 81 81 78 77 75 76 77 80 82 84
46 48 50 54 58 65 66 67 69 71 76 80 80 78 72 68 73 78 80 79 80 80 75 78 81 82 76 79 79 79 81 82 82 81 80 79 78 78 78 78 80 83 85 88
50 51 52 56 60 63 66 63 65 70 74 75 76 70 62 65 68 71 75 80 82 78 77 81 83 79 80 83 84 83 84 82 79 77 77 79 79 79 80 82 85 87 89 92
52 53 54 58 61 61 61 60 62 69 74 74 70 63 61 64 66 65 72 78 79 78 81 82 77 78 80 80 80 80 78 77 76 77 78 79 80 82 83 85 88 90 94 96

GFSNGP_250_spd_282.txt.gz
Wind_Speed
79 77 80 81 80 81 84 84 78 69 67 71 89 97 104 105 105 105 109 100 100 96 93 93 91 86 85 84 82 78 78 81 84 84 83 82 81 78 76 74 76 76 75 76
80 77 79 83 83 84 83 79 75 69 72 69 81 96 101 106 110 109 107 106 101 97 93 94 92 90 89 86 86 83 79 76 77 83 85 85 84 83 82 79 78 78 77 76
79 84 86 87 72 75 76 82 81 79 75 76 78 86 96 103 104 107 114 109 104 100 96 95 96 95 91 88 87 83 82 78 76 75 80 84 84 83 81 80 78 78 75 72
78 87 91 60 75 81 82 82 81 82 79 77 78 81 87 99 105 108 112 109 95 98 98 99 99 100 93 87 84 81 79 80 78 75 73 76 80 80 79 79 78 73 69 69
80 83 78 73 73 80 84 87 89 91 86 81 84 86 90 92 103 102 104 105 101 99 95 93 93 91 87 84 79 78 77 75 74 73 72 71 72 74 74 73 72 73 73 71
78 77 76 64 78 86 92 93 99 92 85 81 82 85 85 89 96 87 86 106 98 93 90 86 82 80 80 77 76 75 75 73 70 69 69 66 65 66 67 68 67 67 68 68
74 72 63 66 78 87 100 96 102 96 87 85 86 86 85 91 91 88 95 104 96 95 89 86 80 77 75 74 73 75 76 70 65 65 64 64 64 62 61 59 61 62 66 68
76 69 56 68 80 88 94 94 95 91 88 85 86 90 88 90 86 84 91 94 96 90 87 86 82 78 76 75 79 78 75 68 62 63 61 62 60 58 56 56 59 63 65 66
73 63 57 70 80 90 92 88 84 91 87 82 86 91 89 88 82 83 84 94 87 83 86 84 86 86 82 81 79 77 73 67 63 62 61 56 55 54 52 55 59 64 66 69
74 63 61 77 82 89 91 87 81 87 87 87 89 92 90 86 84 80 84 87 89 89 84 84 83 84 87 83 78 70 69 65 61 62 62 60 60 60 57 60 63 66 67 71
64 66 72 79 84 90 88 88 84 85 90 90 92 82 86 88 85 77 77 81 82 84 82 80 81 82 81 78 73 69 65 62 61 64 64 60 61 62 58 62 65 67 69 72
58 81 73 78 82 84 85 87 83 84 91 92 92 86 88 88 84 80 74 77 80 78 80 79 73 77 78 75 70 66 63 66 63 65 65 60 65 64 64 67 69 71 75 77
69 81 75 76 82 83 85 87 85 87 91 89 92 95 93 90 85 80 77 75 78 76 76 75 72 74 71 68 67 65 64 66 66 65 62 64 66 65 69 72 71 74 76 78
72 77 72 72 80 87 87 88 87 87 88 88 94 91 84 86 83 80 77 76 76 76 75 73 75 77 72 68 66 66 68 68 71 68 64 67 68 72 74 76 73 74 72 73
75 72 67 69 73 82 82 86 87 88 87 86 90 86 89 88 88 83 80 77 75 75 72 70 73 74 73 71 67 67 68 70 73 73 71 72 70 73 75 74 73 68 70 75
71 65 61 69 69 76 78 78 77 83 85 86 88 91 92 87 85 87 82 77 74 74 72 70 72 73 68 74 74 69 70 74 76 72 75 78 78 75 69 68 67 69 72 70
66 64 67 73 73 76 74 76 77 84 85 84 85 90 87 82 84 85 80 76 73 74 71 68 70 70 67 71 73 73 72 73 73 73 75 73 68 66 67 67 68 68 69 72
64 64 59 60 65 66 64 66 73 80 84 83 86 88 84 78 75 79 78 78 72 73 70 69 69 66 66 68 69 68 70 70 68 67 66 63 65 67 64 67 66 66 70 71
62 61 54 53 59 63 64 62 67 75 83 81 78 79 81 79 73 77 79 75 73 71 71 70 67 66 65 64 62 61 65 67 70 70 67 66 65 64 66 65 65 69 70 74
61 59 53 52 54 61 64 63 68 74 79 80 76 77 76 75 75 78 78 75 73 73 74 68 65 65 64 61 58 57 61 63 65 71 72 67 63 62 63 67 72 73 73 76
53 53 48 47 49 58 62 64 64 69 77 80 74 70 72 77 77 78 77 71 72 75 73 69 68 66 63 60 59 59 60 59 63 64 63 64 64 67 71 72 72 75 77 80
47 47 43 44 46 52 55 60 61 67 75 75 73 74 74 76 76 75 74 71 75 74 72 71 69 70 64 60 58 59 61 63 65 67 68 70 75 76 74 75 78 78 78 81
44 43 39 40 44 49 53 55 56 62 68 73 74 72 70 73 73 72 69 71 72 72 71 72 71 70 71 72 67 64 62 61 61 63 65 67 67 68 70 72 74 78 80 81
40 39 34 37 44 48 51 54 55 60 68 72 72 71 70 69 69 69 72 73 69 72 74 75 72 71 75 77 75 74 72 73 75 76 74 71 70 72 74 77 81 80 79 80
38 36 36 42 46 50 54 53 54 58 62 63 65 65 63 64 66 70 74 68 68 73 75 73 73 69 71 73 74 75 74 75 78 80 77 77 79 80 79 78 77 78 80 82
35 35 39 44 46 48 49 52 53 56 58 58 59 62 60 61 66 70 66 63 67 71 74 73 73 74 70 69 73 73 73 74 76 74 75 77 78 75 75 77 77 79 82 85
36 36 39 42 43 43 46 51 51 52 55 53 56 60 61 61 62 61 57 62 66 65 70 73 73 69 69 73 74 74 75 75 72 72 74 74 75 76 78 80 82 84 85 86

GFSNGP_250_spd_285.txt.gz
Wind_Speed
74 74 80 82 84 84 86 79 79 67 57 59 63 72 80 92 101 102 101 97 96 93 101 101 96 92 89 87 86 83 78 76 74 71 72 74 75 77 85 84 82 82 80 80
81 82 84 85 83 82 81 81 84 76 68 64 71 71 76 85 98 102 93 92 102 106 102 93 97 99 95 89 90 87 84 79 75 74 73 73 73 71 73 76 82 87 85 84
77 87 87 80 74 82 83 81 82 82 74 76 72 74 77 85 91 96 94 98 99 106 101 96 94 97 96 93 92 89 88 84 81 79 76 74 73 74 76 74 71 76 82 88
66 80 81 62 79 83 86 83 84 91 89 79 74 75 82 87 90 90 90 97 106 95 97 96 101 98 95 91 90 88 87 87 84 81 79 77 76 74 74 74 73 73 73 74
65 74 66 61 67 81 89 85 95 97 91 83 79 81 85 86 90 89 93 86 90 95 94 101 99 99 93 91 91 92 91 88 86 83 81 80 77 75 74 72 70 70 71 70
72 72 62 58 73 81 93 91 105 100 86 82 81 81 84 87 90 87 87 82 85 87 96 94 98 104 101 94 91 91 91 91 86 86 85 82 78 73 72 70 66 66 68 66
73 70 58 63 75 83 87 88 101 96 86 86 84 82 85 87 87 89 85 82 81 84 77 89 95 96 95 95 91 90 86 88 85 86 85 81 74 71 70 69 65 63 63 60
73 67 52 62 77 85 87 88 96 93 86 84 81 83 83 86 85 89 85 82 78 76 74 75 82 87 93 88 88 84 84 84 78 75 73 71 70 69 68 65 63 60 60 62
63 56 59 73 82 86 91 87 89 89 87 83 84 87 85 87 85 83 85 81 76 76 79 84 94 94 80 80 83 78 72 71 68 67 65 68 68 69 69 68 63 60 60 63
57 54 68 72 77 85 89 89 83 82 86 85 86 87 89 89 90 83 85 81 75 73 79 80 82 86 77 72 66 69 75 69 68 67 67 68 69 69 70 67 64 62 63 61
56 65 71 75 79 82 84 86 85 78 80 83 86 85 87 88 87 91 85 81 79 81 80 77 79 78 74 69 71 69 70 71 69 67 68 69 69 71 71 65 64 65 64 63
67 76 72 72 75 76 79 83 84 82 81 81 84 83 82 87 92 90 86 84 84 84 83 81 80 74 71 68 64 66 72 71 72 75 72 72 73 74 66 60 62 66 66 63
70 74 68 66 73 72 74 79 81 82 83 83 86 85 81 84 89 87 89 86 84 83 83 79 72 68 68 68 66 69 71 69 71 71 71 71 70 67 64 58 60 63 66 65
72 71 65 64 70 75 73 77 78 80 84 84 83 85 83 82 84 90 88 89 84 82 81 79 70 64 65 65 66 70 71 67 67 69 68 68 66 66 59 57 61 62 65 67
68 64 60 63 59 67 67 70 72 75 78 80 82 83 81 84 86 86 97 86 85 82 80 80 73 64 63 62 66 67 68 64 63 65 67 65 65 65 61 59 63 62 63 65
58 56 57 57 57 59 66 66 69 72 76 77 80 81 81 85 88 88 85 79 86 82 80 77 72 67 62 61 63 64 67 64 64 62 61 62 66 67 62 63 65 65 66 67
55 60 64 62 63 60 64 68 68 72 76 78 79 80 82 85 87 87 81 85 82 83 78 76 73 67 62 61 60 62 66 66 67 65 63 59 63 62 64 65 67 68 68 68
54 58 59 57 57 58 55 62 64 68 70 76 80 80 80 80 82 84 84 82 70 77 76 74 74 67 64 62 61 61 64 65 66 64 66 66 63 60 64 68 68 68 70 67
51 58 61 59 58 56 54 59 65 66 71 73 76 76 80 78 80 82 81 75 61 68 78 74 74 68 65 61 61 61 63 64 64 63 66 66 65 64 67 68 67 69 70 66
52 57 56 55 55 56 54 57 63 64 70 76 77 80 78 74 75 77 77 72 68 72 78 75 72 68 65 62 60 61 62 61 61 62 62 62 64 66 70 66 60 60 58 60
45 49 50 50 53 55 56 55 59 63 71 76 74 74 74 80 80 79 77 71 65 66 70 68 67 69 67 62 61 62 62 59 58 58 55 55 59 63 65 60 61 61 60 59
42 45 47 49 50 51 52 51 56 63 67 69 69 71 74 77 80 78 72 67 69 60 65 66 64 67 66 62 62 63 62 59 58 57 54 53 53 56 58 56 57 58 62 64
36 41 43 47 44 45 46 46 49 56 61 65 68 68 68 72 75 77 68 65 64 53 61 64 64 65 67 63 65 65 62 59 57 55 54 51 53 56 54 56 57 57 60 62
39 41 41 37 37 38 37 39 45 51 58 64 66 66 66 67 68 69 67 64 61 57 65 66 65 67 68 64 65 63 60 58 57 58 55 54 56 57 60 60 57 56 59 63
33 32 34 34 32 31 32 38 49 54 58 61 62 60 59 63 63 64 62 60 58 58 64 65 66 68 66 65 65 64 62 61 59 58 58 60 60 61 58 55 53 57 62 65
29 30 30 30 28 31 36 42 47 51 54 55 55 54 53 58 60 57 58 59 58 56 61 63 64 65 64 65 68 69 69 68 65 62 60 61 64 62 61 62 64 68 71 74
26 25 26 25 27 31 35 39 42 47 49 50 50 48 49 53 57 57 58 57 56 55 58 61 63 63 65 68 69 70 73 72 72 71 70 70 71 71 70 71 72 73 73 73